User: anonymous   Login
Location: Radford
(37.1320°N, 80.5770°W)
Time: 03:24:32
(UTC-04:00)
Language:

Okean 1-7 - Orbit

View from above orbital plane
View from above orbital plane
View from above satellite
View from above satellite

Ground track
Ground track

The orbit data is extracted from the following two-line orbital elements,

1 23317U 94066A   17262.85283066 +.00000247 +00000-0 +24443-4 0  9991
2 23317 082.5395 029.2802 0021313 109.5229 250.8292 14.87449330240020
Epoch (UTC): 19 September 2017 20:28:04
Eccentricity: 0.0021313
inclination: 82.5395°
perigee height: 591 km
apogee height: 621 km
right ascension of ascending node: 29.2802°
argument of perigee: 109.5229°
revolutions per day: 14.87449330
mean anomaly at epoch: 250.8292°
orbit number at epoch: 24002

The dashed part of the orbit path shows where the satellite is in the earth's shadow,  

DLR